Location: Tamazert
(32.6352°N, 5.2072°W)
Time: 15:01:39
(UTC+00:00)

Vanguard 3 - Pass Details

Date: 04 October 2022
Orbit: 509 x 3255 km, 33.3° (Epoch: 08 December)

Event Time Altitude Azimuth Distance (km) Brightness Sun altitude
Rises 10:17:56 0° 272° (W) 2,880 9.7 44.5°
Reaches altitude 10° 10:19:50 10° 273° (W) 2,127 9.1 44.7°
Maximum altitude 10:24:39 84° 1° (N) 928 8.2 45.4°
Drops below altitude 10° 10:33:00 10° 91° (E) 3,574 10.9 46.4°
Sets 10:37:03 0° 92° (E) 5,027 11.5 46.9°
